KO4FR Weather Reports


time (UTC)temp
C
wind
direction
speed
KPH
gust
KPH
rain 1hr
cm
rain 24hr
cm
rain mn
cm
humidity
%
barometer
mb
20260502130453 11 25 0.0 12.9 0.00 0.00 0.00 67 1014.0
20260502123453 11 13 0.0 0.0 0.00 0.00 0.00 62 1014.1
20260502122953 11 9 0.0 3.2 0.00 0.00 0.00 61 1014.1
20260502122453 11 360 0.0 3.2 0.00 0.00 0.00 60 1014.1
20260502121953 11 31 0.0 0.0 0.00 0.00 0.00 59 1014.1
20260502121453 11 31 0.0 0.0 0.00 0.00 0.00 59 1014.0
20260502120953 11 31 0.0 0.0 0.00 0.00 0.00 58 1014.0
20260502120453 11 31 0.0 0.0 0.00 0.00 0.00 57 1013.9
20260502115453 10 44 0.0 0.0 0.00 0.00 0.00 53 1014.0
20260502114953 10 44 0.0 0.0 0.00 0.00 0.00 52 1014.0
20260502114453 10 44 0.0 0.0 0.00 0.00 0.00 52 1013.9
20260502113953 10 44 0.0 0.0 0.00 0.00 0.00 52 1013.9
20260502113453 10 43 0.0 0.0 0.00 0.00 0.00 51 1014.0
20260502112953 10 37 0.0 0.0 0.00 0.00 0.00 51 1014.0
20260502112453 10 46 0.0 0.0 0.00 0.00 0.00 49 1013.9
20260502111953 10 46 0.0 0.0 0.00 0.00 0.00 48 1013.8
20260502111453 10 46 0.0 0.0 0.00 0.00 0.00 48 1013.7
20260502110953 10 46 0.0 0.0 0.00 0.00 0.00 46 1013.8
20260502110453 10 46 0.0 0.0 0.00 0.00 0.00 46 1013.8
20260502105953 10 46 0.0 0.0 0.00 0.00 0.00 46 1013.8
20260502105453 10 46 0.0 0.0 0.00 0.00 0.00 45 1013.8
20260502104953 10 46 0.0 0.0 0.00 0.00 0.00 45 1013.7
20260502104453 10 46 0.0 0.0 0.00 0.00 0.00 44 1013.8
20260502103953 10 46 0.0 0.0 0.00 0.00 0.00 43 1013.8
20260502103453 10 46 0.0 0.0 0.00 0.00 0.00 44 1013.9
20260502102953 10 46 0.0 0.0 0.00 0.00 0.00 43 1013.8
20260502102453 10 46 0.0 0.0 0.00 0.00 0.00 41 1013.7
20260502101953 10 46 0.0 0.0 0.00 0.00 0.00 41 1013.8
20260502101453 10 46 0.0 0.0 0.00 0.00 0.00 38 1013.7
20260502100953 10 46 0.0 0.0 0.00 0.00 0.00 36 1013.6
20260502100453 10 46 0.0 0.0 0.00 0.00 0.00 35 1013.4
20260502091453 8 96 0.0 0.0 0.00 0.00 0.00 24 1013.3
20260502090953 8 96 0.0 0.0 0.00 0.00 0.00 25 1013.1
20260502090453 8 96 0.0 0.0 0.00 0.00 0.00 26 1013.1
20260502071452 8 96 0.0 0.0 0.00 0.00 0.00 46 1012.4
20260502070952 9 96 0.0 0.0 0.00 0.00 0.00 47 1012.4
20260502070452 9 96 0.0 0.0 0.00 0.00 0.00 48 1012.5
20260502065953 9 96 0.0 0.0 0.00 0.00 0.00 49 1012.5
20260502065452 9 96 0.0 0.0 0.00 0.00 0.00 50 1012.5
20260502064952 9 96 0.0 0.0 0.00 0.00 0.00 52 1012.5
20260502064452 9 96 0.0 0.0 0.00 0.00 0.00 53 1012.5
20260502063952 9 96 0.0 0.0 0.00 0.00 0.00 54 1012.5
20260502063452 9 96 0.0 0.0 0.00 0.00 0.00 54 1012.6
20260502062952 10 96 0.0 0.0 0.00 0.00 0.00 54 1012.7
20260502062452 10 96 0.0 0.0 0.00 0.00 0.00 54 1012.6
20260502061952 10 96 0.0 0.0 0.00 0.00 0.00 55 1012.7
20260502061452 10 96 0.0 0.0 0.00 0.00 0.00 54 1012.7
20260502060952 10 96 0.0 0.0 0.00 0.00 0.00 53 1012.7
20260502060452 10 96 0.0 0.0 0.00 0.00 0.00 54 1012.7
20260502055953 10 96 0.0 0.0 0.00 0.00 0.00 54 1012.6
20260502055452 10 96 0.0 0.0 0.00 0.00 0.00 54 1012.8
20260502054952 10 96 0.0 0.0 0.00 0.00 0.00 54 1012.9
20260502054452 10 96 0.0 0.0 0.00 0.00 0.00 54 1013.0
20260502053952 10 96 0.0 0.0 0.00 0.00 0.00 55 1013.1
20260502053452 10 96 0.0 0.0 0.00 0.00 0.00 56 1013.2
20260502052952 10 96 0.0 0.0 0.00 0.00 0.00 57 1013.3
20260502052452 10 96 0.0 0.0 0.00 0.00 0.00 57 1013.3
20260502051952 10 96 0.0 0.0 0.00 0.00 0.00 56 1013.3
20260502051452 10 96 0.0 0.0 0.00 0.00 0.00 57 1013.3
20260502050952 10 96 0.0 0.0 0.00 0.00 0.00 58 1013.3
20260502050453 10 96 0.0 0.0 0.00 0.00 0.00 61 1013.3
20260502045952 10 96 0.0 0.0 0.00 0.00 0.00 63 1013.3
20260502045452 10 96 0.0 0.0 0.00 0.00 0.00 63 1013.2
20260502044952 10 96 0.0 0.0 0.00 0.00 0.00 63 1013.3
20260502044452 10 96 0.0 0.0 0.00 0.00 0.00 64 1013.3
20260502043952 10 96 0.0 0.0 0.00 0.00 0.00 64 1013.3
20260502043452 10 96 0.0 0.0 0.00 0.00 0.00 64 1013.3
20260502042952 10 96 0.0 0.0 0.00 0.00 0.00 65 1013.3
20260502042452 10 96 0.0 0.0 0.00 0.00 0.00 65 1013.6
20260502041952 10 96 0.0 0.0 0.00 0.00 0.00 66 1013.7
20260502041452 11 96 0.0 0.0 0.00 0.00 0.00 66 1013.7
20260502040952 11 96 0.0 0.0 0.00 0.00 0.00 66 1013.7
20260502040452 11 96 0.0 0.0 0.00 0.00 0.00 67 1013.6
20260502035952 11 96 0.0 0.0 0.00 0.00 0.00 67 1013.7
20260502035452 11 96 0.0 0.0 0.00 0.00 0.00 67 1013.7
20260502034952 11 96 0.0 0.0 0.00 0.00 0.00 68 1013.7
20260502034452 11 96 0.0 0.0 0.00 0.00 0.00 68 1013.8
20260502033952 11 96 0.0 0.0 0.00 0.00 0.00 68 1013.7
20260502032952 11 96 0.0 0.0 0.00 0.00 0.00 68 1013.8
20260502032452 11 96 0.0 0.0 0.00 0.00 0.00 68 1013.9
20260502031952 11 96 0.0 0.0 0.00 0.00 0.00 68 1013.9
20260502031452 11 96 0.0 0.0 0.00 0.00 0.00 69 1013.8
20260502030952 11 96 0.0 0.0 0.00 0.00 0.00 69 1013.8
20260502030452 11 96 0.0 0.0 0.00 0.00 0.00 69 1013.8
20260502025952 11 94 0.0 0.0 0.00 0.00 0.00 69 1013.7
20260502025452 11 93 0.0 0.0 0.00 0.00 0.00 69 1013.6
20260502024952 11 93 0.0 0.0 0.00 0.00 0.00 69 1013.6
20260502024452 11 93 0.0 0.0 0.00 0.00 0.00 69 1013.7
20260502023952 11 97 0.0 0.0 0.00 0.00 0.00 69 1013.5
20260502023452 11 97 0.0 0.0 0.00 0.00 0.00 69 1013.4
20260502022951 12 97 0.0 0.0 0.00 0.00 0.00 69 1013.3
20260502022452 12 97 0.0 0.0 0.00 0.00 0.00 69 1013.4
20260502021952 12 97 0.0 0.0 0.00 0.00 0.00 69 1013.3
20260502021452 12 97 0.0 0.0 0.00 0.00 0.00 69 1013.4
20260502020952 12 97 0.0 0.0 0.00 0.00 0.00 69 1013.4
20260502020452 12 98 0.0 0.0 0.00 0.00 0.00 69 1013.3
20260502015952 12 103 0.0 0.0 0.00 0.00 0.00 69 1013.4
20260502015452 12 103 0.0 0.0 0.00 0.00 0.00 69 1013.4
20260502014952 12 94 0.0 0.0 0.00 0.00 0.00 69 1013.4
20260502014452 12 90 0.0 0.0 0.00 0.00 0.00 69 1013.4
20260502013951 12 98 0.0 0.0 0.00 0.00 0.00 68 1013.6
20260502013452 13 98 0.0 0.0 0.00 0.00 0.00 68 1013.6
20260502012952 13 94 0.0 0.0 0.00 0.00 0.00 67 1013.4
20260502012452 13 105 0.0 0.0 0.00 0.00 0.00 67 1013.4
20260502011951 13 98 0.0 0.0 0.00 0.00 0.00 67 1013.1
20260502011452 13 90 0.0 0.0 0.00 0.00 0.00 67 1013.1
20260502010951 13 87 0.0 0.0 0.00 0.00 0.00 66 1013.1
20260502010452 13 86 0.0 0.0 0.00 0.00 0.00 66 1013.0
20260502005951 13 86 0.0 0.0 0.00 0.00 0.00 65 1012.8
20260502005452 14 86 0.0 0.0 0.00 0.00 0.00 65 1012.7
20260502004951 14 78 0.0 6.4 0.00 0.00 0.00 64 1012.6
20260502004451 14 50 0.0 6.4 0.00 0.00 0.00 64 1012.6
20260502003951 14 81 0.0 0.0 0.00 0.00 0.00 63 1012.4
20260502003451 15 90 0.0 0.0 0.00 0.00 0.00 63 1012.3
20260502002952 15 88 0.0 0.0 0.00 0.00 0.00 62 1012.2
20260502002451 15 101 0.0 0.0 0.00 0.00 0.00 62 1012.1
20260502001951 15 94 0.0 0.0 0.00 0.00 0.00 61 1012.1
20260502001451 15 77 0.0 0.0 0.00 0.00 0.00 60 1012.0
20260502000951 15 84 0.0 0.0 0.00 0.00 0.00 59 1012.0
20260502000454 15 84 0.0 0.0 0.00 0.00 0.00 58 1011.9
20260501235951 15 84 0.0 0.0 0.00 0.00 0.00 58 1012.0
20260501235451 16 84 0.0 0.0 0.00 0.00 0.00 57 1011.9
20260501234951 16 84 0.0 0.0 0.00 0.00 0.00 57 1011.8
20260501234452 16 84 0.0 0.0 0.00 0.00 0.00 56 1011.8
20260501233952 16 84 0.0 0.0 0.00 0.00 0.00 54 1011.7
20260501233451 16 84 0.0 0.0 0.00 0.00 0.00 54 1011.6
20260501232951 16 85 0.0 0.0 0.00 0.00 0.00 54 1011.6
20260501232451 16 85 0.0 0.0 0.00 0.00 0.00 53 1011.7
20260501231951 17 84 0.0 0.0 0.00 0.00 0.00 51 1011.6
20260501231451 17 84 0.0 0.0 0.00 0.00 0.00 51 1011.7
20260501230951 17 84 0.0 0.0 0.00 0.00 0.00 50 1011.6
20260501230451 17 84 0.0 0.0 0.00 0.00 0.00 51 1011.7
20260501225951 17 84 0.0 0.0 0.00 0.00 0.00 50 1011.8
20260501225451 17 84 0.0 0.0 0.00 0.00 0.00 49 1011.7
20260501224951 17 82 0.0 0.0 0.00 0.00 0.00 49 1011.8
20260501224451 17 97 0.0 0.0 0.00 0.00 0.00 49 1012.0
20260501223951 17 88 0.0 0.0 0.00 0.00 0.00 49 1012.1
20260501223451 18 88 0.0 0.0 0.00 0.00 0.00 47 1012.2
20260501222951 18 87 0.0 0.0 0.00 0.00 0.00 46 1012.2
20260501222451 18 76 0.0 0.0 0.00 0.00 0.00 47 1012.1
20260501221951 17 98 0.0 0.0 0.00 0.00 0.00 48 1012.2
20260501221451 17 88 0.0 0.0 0.00 0.00 0.00 47 1012.2
20260501220951 17 103 0.0 3.2 0.00 0.00 0.00 46 1012.3
20260501220451 17 74 0.0 3.2 0.00 0.00 0.00 46 1012.4
20260501215951 18 101 0.0 3.2 0.00 0.00 0.00 44 1012.3
20260501215451 18 101 0.0 6.4 0.00 0.00 0.00 44 1012.3
20260501214951 18 96 0.0 6.4 0.00 0.00 0.00 45 1012.4
20260501214451 18 94 0.0 0.0 0.00 0.00 0.00 45 1012.5
20260501213951 18 91 0.0 3.2 0.00 0.00 0.00 44 1012.5
20260501213451 18 91 0.0 3.2 0.00 0.00 0.00 43 1012.5
20260501212951 18 101 0.0 3.2 0.00 0.00 0.00 42 1012.5
20260501212451 18 109 0.0 3.2 0.00 0.00 0.00 41 1012.4
20260501211951 18 95 0.0 3.2 0.00 0.00 0.00 40 1012.4
20260501211451 18 120 0.0 6.4 0.00 0.00 0.00 37 1012.3
20260501210951 18 109 0.0 6.4 0.00 0.00 0.00 37 1012.4
20260501210451 19 111 0.0 3.2 0.00 0.00 0.00 37 1012.4
20260501205951 18 97 0.0 3.2 0.00 0.00 0.00 39 1012.4
20260501205451 19 97 0.0 3.2 0.00 0.00 0.00 36 1012.4
20260501204951 19 92 0.0 3.2 0.00 0.00 0.00 37 1012.5
20260501204451 18 81 0.0 3.2 0.00 0.00 0.00 39 1012.4
20260501203951 18 72 0.0 0.0 0.00 0.00 0.00 41 1012.5
20260501203451 19 103 0.0 19.3 0.00 0.00 0.00 41 1012.6
20260501202951 19 55 0.0 19.3 0.00 0.00 0.00 41 1012.5
20260501202451 18 121 0.0 3.2 0.00 0.00 0.00 43 1012.6
20260501201951 18 74 0.0 0.0 0.00 0.00 0.00 42 1012.7
20260501201451 18 101 0.0 0.0 0.00 0.00 0.00 40 1012.9
20260501200951 18 117 0.0 3.2 0.00 0.00 0.00 41 1012.9
20260501200451 18 103 0.0 3.2 0.00 0.00 0.00 37 1013.1
20260501195951 19 113 0.0 3.2 0.00 0.00 0.00 36 1013.1
20260501195451 18 98 0.0 0.0 0.00 0.00 0.00 38 1013.2
20260501194951 19 99 0.0 0.0 0.00 0.00 0.00 38 1013.3
20260501194451 19 74 0.0 0.0 0.00 0.00 0.00 36 1013.3
20260501193951 19 109 0.0 16.1 0.00 0.00 0.00 35 1013.3
20260501193451 19 107 0.0 16.1 0.00 0.00 0.00 34 1013.7
20260501192951 19 54 0.0 3.2 0.00 0.00 0.00 36 1013.6
20260501192451 19 90 0.0 0.0 0.00 0.00 0.00 38 1013.7
20260501191950 18 96 0.0 0.0 0.00 0.00 0.00 38 1013.7
20260501191451 18 102 0.0 3.2 0.00 0.00 0.00 37 1013.8
20260501190950 18 103 0.0 3.2 0.00 0.00 0.00 36 1013.9
20260501190451 18 91 0.0 3.2 0.00 0.00 0.00 36 1013.9
20260501185950 18 102 0.0 3.2 0.00 0.00 0.00 38 1013.9
20260501185451 18 96 0.0 3.2 0.00 0.00 0.00 38 1014.0
20260501184951 18 98 0.0 6.4 0.00 0.00 0.00 36 1014.2
20260501184450 18 22 0.0 6.4 0.00 0.00 0.00 37 1014.4
20260501183950 19 121 0.0 3.2 0.00 0.00 0.00 36 1014.5
20260501183451 19 120 0.0 12.9 0.00 0.00 0.00 37 1014.5
20260501182950 18 119 0.0 12.9 0.00 0.00 0.00 38 1014.6
20260501182450 18 59 0.0 0.0 0.00 0.00 0.00 36 1014.6
20260501181950 18 76 0.0 6.4 0.00 0.00 0.00 37 1014.8
20260501181450 18 90 0.0 6.4 0.00 0.00 0.00 35 1015.0
20260501180951 18 111 0.0 6.4 0.00 0.00 0.00 35 1014.8
20260501180450 19 73 0.0 25.7 0.00 0.00 0.00 36 1014.8
20260501175950 18 38 3.2 25.7 0.00 0.00 0.00 36 1014.8
20260501175451 18 27 8.0 19.3 0.00 0.00 0.00 36 1014.9
20260501174950 18 92 0.0 3.2 0.00 0.00 0.00 35 1015.0
20260501174450 18 100 0.0 0.0 0.00 0.00 0.00 36 1015.0
20260501173951 18 90 0.0 3.2 0.00 0.00 0.00 38 1015.1
20260501173450 18 120 0.0 3.2 0.00 0.00 0.00 38 1015.1
20260501172950 17 140 0.0 0.0 0.00 0.00 0.00 38 1015.1
20260501172451 17 146 0.0 0.0 0.00 0.00 0.00 38 1015.2
20260501171950 18 103 0.0 0.0 0.00 0.00 0.00 36 1015.4
20260501171451 18 100 0.0 16.1 0.00 0.00 0.00 38 1015.3
20260501170950 17 42 0.0 16.1 0.00 0.00 0.00 37 1015.4
20260501170450 17 42 6.4 16.1 0.00 0.00 0.00 38 1015.5
20260501165951 17 101 0.0 0.0 0.00 0.00 0.00 38 1015.5
20260501165450 17 100 0.0 3.2 0.00 0.00 0.00 37 1015.7
20260501164950 17 98 0.0 3.2 0.00 0.00 0.00 38 1015.7
20260501164450 17 117 0.0 0.0 0.00 0.00 0.00 38 1015.7
20260501163950 17 117 0.0 0.0 0.00 0.00 0.00 38 1015.7
20260501163450 17 81 0.0 19.3 0.00 0.00 0.00 39 1016.0
20260501162951 17 19 0.0 19.3 0.00 0.00 0.00 37 1015.9
20260501162450 17 63 0.0 0.0 0.00 0.00 0.00 39 1016.1
20260501161950 17 85 0.0 19.3 0.00 0.00 0.00 37 1016.1
20260501161451 17 87 0.0 19.3 0.00 0.00 0.00 42 1016.1
20260501160950 17 68 0.0 19.3 0.00 0.00 0.00 41 1016.1
20260501160450 16 29 0.0 19.3 0.00 0.00 0.00 40 1016.1
20260501155950 16 19 0.0 19.3 0.00 0.00 0.00 43 1016.2
20260501155451 16 28 0.0 0.0 0.00 0.00 0.00 43 1016.3
20260501154950 16 59 0.0 19.3 0.00 0.00 0.00 43 1016.4
20260501154450 16 36 0.0 25.7 0.00 0.00 0.00 43 1016.4
20260501153950 16 26 8.0 25.7 0.00 0.00 0.00 43 1016.4
20260501153450 16 19 12.9 25.7 0.00 0.00 0.00 43 1016.5
20260501152950 16 45 0.0 29.0 0.00 0.00 0.00 45 1016.6
20260501152450 16 32 0.0 29.0 0.00 0.00 0.00 42 1016.6
20260501151950 16 16 0.0 25.7 0.00 0.00 0.00 43 1016.8
20260501151450 16 24 0.0 25.7 0.00 0.00 0.00 46 1016.7
20260501150950 15 19 12.9 25.7 0.00 0.00 0.00 44 1016.8
20260501150450 15 23 0.0 25.7 0.00 0.00 0.00 48 1016.8
20260501145950 15 21 8.0 25.7 0.00 0.00 0.00 44 1016.9
20260501145450 15 32 0.0 19.3 0.00 0.00 0.00 45 1016.9
20260501144950 15 27 0.0 25.7 0.00 0.00 0.00 46 1016.9
20260501144450 14 26 1.6 25.7 0.00 0.00 0.00 48 1016.9
20260501143950 14 22 6.4 19.3 0.00 0.00 0.00 50 1016.8
20260501143450 14 16 0.0 19.3 0.00 0.00 0.00 51 1016.8